SCP
0 0 0 0 0 0 0 0 0 0 0 0 0 0 0 0 0 0 0 0 0 0 0 0 0 0 0 0 0 0 0 0 0 0 0 0 0 0 0 0 0 0 0 0 0 0 0 0 0
0 0 0 0 0 0 0 0 0 0 0 0 0 0 0 0 0 0 0 0 0 0 0 0 0 0 0 0 0 0 0 0 0 0 0 0 0 0 0 0 0 0 0 0 0 0 0 0 0
0 0 0 0 0 0 0 0 0 0 0 0 0 0 0 0 0 0 0 0 0 0 0 0 0 0 0 0 0 0 0 0 0 0 0 0 0 0 0 0 0 0 0 0 0 0 0 0 0
0 0 0 0 0 0 0 0 0 0 0 0 0 0 0 0 0 0 0 0 0 0 0 0 0 0 0 0 0 0 0 0 0 0 0 0 0 0 0 0 0 0 0 0 0 0 0 0 0
0 0 0 0 0 0 0 0 -0 0 0 0 0 0 0 0 0 0 0 0 0 0 0 0 0 0 0 0 0 0 0 0 0 0 0 0 0 0 0 0 0 0 0 0 0 0 0 0 0
0 0 0 0 0 0 0 0 0 0 0 0 0 0 0 0 0 0 0 0 0 0 0 0 0 0 0 0 0 0 0 0 0 0 0 0 0 0 0 0 0 0 0 0 0 0 0 0 0
0 0 0 0 0 0 0 0 0 0 0 0 0 0 0 0 0 0 0 0 0 0 0 0 0 0 0 0 0 0 0 0 0 0 0 0 0 0 0 0 0 0 0 0 0 0 0 0 0
0 0 0 0 0 0 0 0 0 0 0 0 0 0 0 0 0 0 0 0 0 0 0 0 0 0 0 0 0 0 0 0 0 0 0 0 0 0 0 0 0 0 0 0 0 0 0 0 0
0 0 0 0 0 0 0 0 0 0 0 0 0 0 0 0 0 0 0 0 0 0 0 0 0 0 0 0 0 0 0 0 0 0 0 0 0 0 0 0 0 0 0 0 0 0 0 0 0
0 0 0 0 0 0 0 0 0 0 0 0 0 0 0 0 0 0 0 0 0 0 0 0 0 0 0 0 0 0 0 0 0 0 0 0 0 0 0 0 0 0 0 0 0 0 0 0 0
0 0 0 0 0 0 0 0 0 0 0 0 0 0 0 0 0 0 0 0 0 0 0 0 0 0 0 0 0 0 0 0 0 0 0 0 0 0 0 0 0 0 0 0 0 0 0 0 0
0 0 0 0 0 0 0 0 0 0 0 0 0 0 0 0 0 0 0 0 0 0 0 0 0 0 0 0 0 0 0 0 0 0 0 0 0 0 0 0 0 0 0 0 0 0 0 0 0
0 0 0 0 0 0 0 0 0 0 0 0 0 0 0 0 0 0 0 0 0 0 0 0 0 0 0 0 0 0 0 0 0 0 0 0 0 0 0 0 0 0 0 0 0 0 0 0 0
0 0 0 0 0 0 0 0 0 0 0 0 0 0 0 0 0 0 0 0 0 0 0 0 0 0 0 0 0 0 0 0 0 0 0 0 0 0 0 0 0 0 0 0 0 0 0 0 0
0 0 0 0 0 0 0 0 0 0 0 0 0 0 0 0 0 0 0 0 0 0 0 0 0 0 0 0 0 0 0 0 0 0 0 0 0 0 0 0 0 0 0 0 0 0 0 0 0
0 0 0 0 0 0 0 0 0 0 0 0 0 0 0 0 0 0 0 0 0 0 0 0 0 0 0 0 0 0 0 0 0 0 0 0 0 0 0 0 0 0 0 0 0 0 0 0 0
0 0 0 0 0 0 0 0 0 0 0 0 0 0 0 0 0 0 0 0 0 0 0 0 0 0 0 0 0 0 0 0 0 0 0 0 0 0 0 0 0 0 0 0 0 0 0 0 0
0 0 0 0 0 0 0 0 0 0 0 0 0 0 0 0 0 0 0 0 0 0 0 0 0 0 0 0 0 0 0 0 0 0 0 0 0 0 0 0 0 0 0 0 0 0 0 0 0
0 0 0 0 0 0 0 0 0 0 0 0 0 0 0 0 0 0 0 0 0 0 0 0 0 0 0 0 0 0 0 0 0 0 0 0 0 0 0 0 0 0 0 0 0 0 0 0 0
0 0 0 0 0 0 0 0 0 0 0 0 0 0 0 0 0 0 0 0 0 0 0 0 0 0 0 0 0 0 0 0 0 0 0 0 0 0 0 0 0 0 0 0 0 0 0 0 0
0 0 0 0 0 0 0 0 0 0 0 0 0 0 0 0 0 0 0 0 0 0 0 0 0 0 0 0 0 0 0 0 0 0 0 0 0 0 0 0 0 0 0 0 0 0 0 0 0
0 0 0 0 0 0 0 0 0 0 0 0 0 0 0 0 0 0 0 0 0 0 0 0 0 0 0 0 0 0 0 0 0 0 0 0 0 0 0 0 0 0 0 0 0 0 0 0 0
0 0 0 0 0 0 0 0 0 0 0 0 0 0 0 0 0 0 0 0 0 0 0 0 0 0 0 0 0 0 0 0 0 0 0 0 0 0 0 0 0 0 0 0 0 0 0 0 0
0 0 0 0 0 0 0 0 0 0 0 0 0 0 0 0 0 0 0 0 0 0 0 0 0 0 0 0 0 0 0 0 0 0 0 0 0 0 0 0 0 0 0 0 0 0 0 0 0
0 0 0 0 0 0 0 0 0 0 0 0 0 0 0 0 0 0 0 0 0 0 0 0 0 0 0 0 0 0 0 0 0 0 0 0 0 0 0 0 0 0 0 0 0 0 0 0 0
0 0 0 0 0 0 0 0 0 0 0 0 0 0 0 0 0 0 0 0 0 0 0 0 0 0 0 0 0 0 0 0 0 0 0 0 0 0 0 0 0 0 0 0 0 0 0 0 0
0 0 0 0 0 0 0 0 0 0 0 0 0 0 0 0 0 0 0 0 0 0 0 0 0 0 0 0 0 0 0 0 0 0 0 0 0 0 0 0 0 0 0 0 0 0 0 0 0
0 0 0 0 0 0 0 0 0 0 0 0 0 0 0 0 0 0 0 0 0 0 0 0 0 0 0 0 0 0 0 0 0 0 0 0 0 0 0 0 0 0 0 0 0 0 0 0 0
0 0 0 0 0 0 0 0 0 0 0 0 0 0 0 0 0 0 0 0 0 0 0 0 0 0 0 0 0 0 0 0 0 0 0 0 0 0 0 0 0 0 0 0 0 0 0 0 0
0 0 0 0 0 0 0 0 0 0 0 0 0 0 0 0 0 0 0 0 0 0 0 0 0 0 0 0 0 0 0 0 0 0 0 0 0 0 0 0 0 0 0 0 0 0 0 0 0
Wind_Speed
13 8 1 4 6 4 2 3 2 1 2 1 3 8 7 4 2 3 2 8 10 10 9 10 11 12 12 13 13 12 11 11 12 12 12 12 12 12 11 11 11 12 12 13 12 12 12 11 10
8 4 4 5 5 1 3 2 0 1 1 1 4 6 6 3 3 5 4 7 12 11 9 9 11 12 12 12 12 12 11 11 11 11 11 11 11 11 11 11 11 11 11 11 11 11 10 9 8
6 1 4 4 3 3 2 2 1 1 1 2 4 5 4 2 2 4 5 11 11 9 7 9 11 12 13 12 12 11 11 10 10 11 11 11 11 11 11 10 10 10 10 10 10 10 9 8 7
3 4 5 4 2 4 3 3 1 1 3 3 4 5 3 2 2 4 10 12 11 8 7 8 11 12 12 12 11 11 11 10 10 10 10 10 10 10 10 9 9 9 9 9 9 8 8 7 6
3 4 3 0 3 3 2 2 1 1 0 2 4 4 3 5 4 11 11 11 11 8 6 7 10 11 11 11 11 10 10 10 10 9 9 9 9 9 9 9 8 8 8 8 8 7 6 5 4
4 4 3 2 4 3 3 2 1 1 1 1 4 4 2 2 6 8 9 8 9 8 7 7 9 9 9 9 9 9 9 9 9 9 8 8 8 8 8 8 8 8 8 8 7 6 6 5 3
3 3 3 3 2 3 3 2 1 1 1 1 4 5 2 1 3 6 8 8 7 7 7 5 6 7 8 8 8 7 7 7 8 8 7 7 6 6 6 6 7 7 7 7 7 6 5 4 3
3 4 2 2 2 4 3 2 1 1 1 1 4 7 5 3 4 7 7 7 7 6 6 5 4 4 5 5 7 7 7 7 7 7 6 6 6 5 5 5 5 6 7 7 7 6 5 4 3
3 4 3 3 2 3 3 3 4 2 3 4 4 2 3 7 7 8 6 5 5 6 5 5 5 4 4 4 6 6 7 7 6 5 6 5 3 3 3 4 5 5 5 6 6 6 5 4 4
3 4 4 2 1 2 3 3 4 3 4 4 5 5 6 7 8 8 7 7 7 7 7 5 6 5 4 4 4 3 3 4 3 3 4 3 2 2 3 4 5 5 6 5 5 5 5 3 2
3 4 2 2 2 2 3 4 3 2 1 1 2 4 6 6 6 6 6 6 7 7 7 6 6 6 5 3 3 2 2 3 3 4 4 3 2 2 2 2 2 3 4 3 3 3 2 2 2
1 1 1 1 2 2 2 3 3 2 1 2 4 8 7 6 5 5 5 5 4 5 6 6 6 6 6 4 3 3 3 3 3 4 4 3 2 2 2 2 2 2 2 2 2 2 3 3 4
0 2 2 3 3 1 1 2 1 3 3 2 5 6 6 6 4 3 3 2 3 4 5 5 6 7 6 5 4 4 4 4 4 4 4 4 3 3 3 3 3 3 2 2 3 3 4 4 4
1 1 3 3 2 2 1 3 2 4 2 3 4 4 3 3 3 1 1 2 3 4 5 5 5 6 6 5 5 4 4 3 3 4 5 5 4 3 3 3 3 3 3 3 3 4 4 4 3
0 1 4 3 2 2 2 3 2 4 2 2 2 2 1 1 1 1 2 2 3 3 3 4 5 6 6 5 5 4 4 4 4 3 5 5 5 4 4 3 3 4 4 4 3 3 3 3 4
2 2 1 3 1 2 2 4 4 4 2 1 1 1 2 2 2 1 1 1 1 0 1 2 2 3 4 4 4 3 3 4 4 3 4 5 5 5 4 4 4 4 3 3 3 3 3 4 4
2 1 2 2 1 2 1 3 5 3 2 1 1 2 2 3 4 3 2 1 2 1 0 1 1 2 2 3 3 3 3 3 3 2 2 3 4 5 4 4 4 4 3 3 3 3 3 3 4
2 1 1 2 2 2 0 2 5 5 3 1 2 2 3 4 3 4 3 2 2 2 2 1 1 0 1 1 1 1 1 2 1 2 2 3 2 4 4 4 4 4 3 4 3 4 4 4 4
3 2 1 2 1 1 1 3 5 5 4 3 3 2 2 2 3 4 5 4 4 4 3 3 3 2 1 0 1 2 2 1 0 0 1 1 2 3 4 3 3 3 4 5 5 4 4 4 2
2 2 1 1 1 1 0 3 3 3 2 1 1 2 3 4 6 6 5 5 5 4 3 3 2 2 2 1 1 1 1 0 0 0 1 1 2 2 2 3 3 4 4 4 4 4 4 3 3
1 3 3 2 2 1 2 4 3 2 2 3 3 2 3 4 4 5 6 5 5 5 4 3 3 3 3 3 2 2 1 1 1 2 2 2 2 2 2 2 2 3 4 4 5 4 5 5 4
3 3 2 2 1 1 1 2 3 2 3 3 4 4 4 4 5 5 6 6 6 5 5 5 4 4 4 3 3 3 1 1 2 2 2 2 3 3 3 2 2 2 2 3 3 4 4 4 5
2 2 2 2 2 0 0 1 4 2 1 2 2 3 4 4 5 6 6 5 5 5 5 5 6 6 5 4 3 2 2 2 3 3 3 3 3 3 3 3 3 3 3 3 4 3 3 3 4
0 2 3 3 2 1 2 3 4 2 2 0 2 3 4 5 5 6 6 6 6 7 7 6 7 7 6 5 4 4 3 4 4 4 4 3 3 3 4 3 3 3 3 3 4 4 4 4 4
3 4 3 2 1 4 2 3 4 2 1 1 2 3 4 5 6 6 7 7 7 8 7 7 7 7 7 6 5 4 3 3 3 3 3 3 3 4 4 3 3 3 3 4 4 3 4 4 4
0 3 4 4 3 2 0 3 3 1 1 2 3 3 4 5 5 6 6 5 6 7 6 6 6 6 6 6 5 5 5 3 3 3 3 3 3 4 5 4 3 3 3 4 4 3 4 3 4
2 1 2 3 2 0 2 2 3 1 1 2 2 3 4 4 4 4 5 5 5 6 6 5 5 5 6 6 5 5 5 5 5 5 4 4 4 4 5 4 4 4 4 4 4 3 3 3 3
2 2 3 3 3 1 3 3 4 3 3 1 1 1 2 3 3 4 4 5 4 4 4 5 5 4 4 5 5 5 5 5 5 5 6 6 6 6 5 5 5 4 4 4 3 3 3 3 3
2 2 2 3 3 3 2 5 3 5 5 3 2 0 1 2 3 3 4 4 5 4 4 5 6 6 6 5 5 5 5 5 5 5 5 6 6 6 6 5 5 5 5 4 3 4 4 4 3
1 1 2 3 2 2 2 5 2 2 3 3 2 0 1 1 2 2 3 3 4 5 5 5 5 5 5 5 5 5 6 6 6 6 6 6 6 6 6 5 5 5 5 5 5 5 4 4 5
Wind_Direction
325 320 25 54 54 51 277 270 239 351 31 1 79 91 96 94 105 136 104 124 126 142 150 150 149 147 146 145 143 142 140 139 136 133 130 124 121 120 120 119 115 113 110 109 107 106 104 102 100
317 323 48 57 81 77 277 273 28 337 177 111 75 83 79 67 74 105 110 136 135 141 146 148 146 147 145 143 143 145 143 141 139 138 135 130 127 125 123 120 119 118 115 113 112 110 109 107 103
319 21 70 70 119 188 228 273 187 320 338 55 59 57 86 115 123 133 146 139 133 137 140 144 144 147 146 144 144 143 143 142 142 141 137 134 132 129 128 125 123 123 122 119 117 116 115 112 106
8 40 57 79 225 233 219 253 242 39 3 41 86 61 51 16 176 137 134 135 133 134 135 143 145 149 148 147 146 145 145 143 143 143 141 140 139 137 135 133 130 130 131 129 125 123 121 119 112
48 73 69 351 253 260 254 253 223 120 80 33 82 88 27 348 83 121 133 135 134 133 135 144 146 148 148 149 149 149 148 146 144 143 143 143 145 144 144 142 140 138 141 138 135 134 130 129 125
50 72 108 222 258 281 292 289 312 75 61 54 82 93 57 18 91 126 133 133 134 137 138 143 145 146 148 150 150 151 151 149 149 147 143 141 144 151 153 153 151 151 151 149 146 147 146 145 144
101 104 163 204 255 285 293 324 59 93 78 81 110 105 115 54 107 126 127 127 128 135 136 138 144 148 150 150 151 150 149 149 148 148 143 141 141 145 151 158 162 165 164 161 160 164 165 170 176
126 114 164 206 219 266 309 343 359 74 88 50 92 128 170 206 134 118 119 123 129 134 140 142 141 143 147 150 152 152 151 148 146 144 142 147 150 150 154 159 167 172 174 173 172 176 184 190 199
90 102 179 202 203 272 334 5 343 0 68 39 39 131 165 141 126 118 115 119 137 147 152 152 152 148 149 155 160 157 156 157 153 153 157 154 158 160 165 179 184 183 179 181 184 190 196 201 218
96 153 200 209 208 289 335 9 338 18 41 39 23 34 102 126 133 139 148 157 163 170 172 168 167 165 161 169 160 162 164 164 162 165 169 167 169 179 181 191 193 195 194 194 197 206 213 213 229
135 173 206 261 309 331 343 344 352 62 44 172 168 148 137 135 143 156 166 170 174 176 178 180 179 175 171 169 165 172 169 168 176 181 183 179 179 185 190 188 205 209 203 205 214 220 224 226 228
126 258 247 291 328 352 325 326 6 30 259 276 156 150 148 151 165 174 177 177 172 175 184 183 182 179 179 174 173 179 180 182 188 195 191 182 185 194 198 198 203 205 210 211 217 221 228 234 237
77 328 326 306 316 298 317 317 325 299 304 43 106 123 150 164 177 182 173 170 166 178 186 188 186 183 181 178 183 183 190 195 197 194 197 192 192 199 200 204 205 211 213 217 225 228 233 239 244
231 294 321 318 321 321 336 309 9 295 323 82 109 126 145 162 168 153 163 195 204 203 197 188 188 189 182 183 187 187 192 193 196 200 200 197 197 201 200 204 209 215 215 216 219 229 230 235 238
22 11 337 316 308 303 40 337 303 302 3 80 107 121 121 82 90 164 203 210 220 215 203 200 198 192 186 187 190 190 190 192 197 210 208 201 200 201 204 205 215 221 217 218 222 233 236 236 239
67 84 290 297 306 324 84 274 312 330 52 54 43 68 64 50 57 14 2 350 323 213 197 210 205 193 197 195 190 189 193 195 199 206 209 207 208 204 204 209 219 223 216 213 219 223 237 243 241
76 185 212 292 337 13 103 270 312 336 59 44 23 42 43 24 15 358 360 11 31 60 158 197 196 194 207 202 195 195 191 197 201 198 202 212 217 212 209 217 222 217 218 219 222 225 223 244 251
178 188 182 222 332 51 122 280 327 345 35 46 41 43 38 34 358 357 12 22 29 32 48 37 359 296 204 200 187 193 202 210 204 208 217 211 223 223 216 225 228 218 219 224 222 231 233 235 248
144 140 181 234 271 78 243 299 320 329 11 39 41 35 29 8 358 15 21 27 34 34 36 36 39 23 44 251 223 212 211 225 248 288 299 251 243 235 220 228 231 228 229 232 225 225 235 238 228
136 148 191 297 341 98 62 312 322 356 24 45 67 29 16 8 18 23 25 29 29 31 31 31 28 30 29 333 257 242 225 196 195 313 336 338 320 301 253 239 239 232 233 241 239 234 236 238 209
209 191 206 239 340 23 60 338 337 355 39 42 38 47 45 34 25 25 27 25 24 21 21 22 20 29 25 18 26 27 41 13 8 350 331 324 321 334 329 297 279 259 237 239 240 236 238 248 240
244 232 204 201 115 291 109 278 302 324 14 31 28 28 31 27 26 27 29 29 26 15 16 25 21 23 24 32 39 48 34 323 314 331 342 352 2 355 341 335 327 311 281 263 253 244 246 245 253
239 264 197 176 145 84 64 180 285 318 335 352 18 29 26 27 31 32 29 28 26 24 28 26 28 27 25 36 41 43 20 355 1 8 358 345 342 345 344 332 332 332 316 296 272 259 254 249 256
155 57 62 67 85 230 220 180 271 268 252 325 31 32 29 28 29 31 25 24 23 24 30 28 31 26 21 29 34 38 27 18 16 9 357 344 335 336 342 335 331 319 310 307 297 276 261 251 255
63 92 62 27 9 245 217 183 245 253 246 156 98 43 30 33 31 28 24 23 21 22 23 23 27 21 18 25 26 22 20 23 15 354 341 336 332 331 331 329 326 323 319 314 313 303 290 267 262
198 132 146 174 203 264 266 215 245 256 85 89 100 78 43 33 30 31 24 22 21 21 21 22 23 18 16 19 16 16 14 11 2 353 343 332 325 322 329 333 331 329 332 329 323 309 307 305 285
110 141 148 122 69 72 256 270 295 345 44 54 68 57 41 29 23 24 20 19 19 18 15 15 21 17 13 13 14 16 12 11 5 359 355 349 341 339 341 338 339 340 343 338 333 326 321 319 319
100 120 97 116 140 230 266 235 225 222 223 254 33 56 30 23 20 19 17 14 13 16 11 14 16 12 6 10 14 12 10 6 3 5 2 352 347 345 344 345 340 343 345 343 336 321 317 320 315
49 88 101 121 156 164 234 260 221 207 202 196 200 164 37 18 12 14 10 7 9 14 17 17 13 12 12 12 12 13 12 11 9 6 359 352 348 347 344 340 341 342 342 338 328 320 322 312 309
145 151 140 151 230 207 216 265 295 192 176 166 178 201 31 23 15 14 9 9 10 13 16 17 11 9 6 8 13 12 10 9 9 5 355 351 349 346 346 344 344 342 338 335 328 316 316 310 306